TimeCDT,TemperatureF,Dew PointF,Humidity,Sea Level PressureIn,VisibilityMPH,Wind Direction,Wind SpeedMPH,Gust SpeedMPH,PrecipitationIn,Events,Conditions,WindDirDegrees,DateUTC
12:58 AM,66.7,61.2,82,30.13,10.0,Calm,Calm,-,N/A,,Clear,0,2013-09-06 05:58:00
1:58 AM,66.4,61.2,83,30.12,10.0,Calm,Calm,-,N/A,,Clear,0,2013-09-06 06:58:00
2:58 AM,64.9,60.1,84,30.11,10.0,Calm,Calm,-,N/A,,Clear,0,2013-09-06 07:58:00
3:58 AM,64.4,60.8,88,30.10,10.0,Calm,Calm,-,N/A,,Clear,0,2013-09-06 08:58:00
4:58 AM,63.0,59.2,87,30.10,10.0,Calm,Calm,-,N/A,,Clear,0,2013-09-06 09:58:00
5:58 AM,62.2,59.2,90,30.10,10.0,West,3.5,-,N/A,,Clear,260,2013-09-06 10:58:00
6:58 AM,61.5,58.8,91,30.12,10.0,WSW,4.6,-,N/A,,Clear,250,2013-09-06 11:58:00
7:58 AM,66.4,62.4,87,30.14,10.0,Calm,Calm,-,N/A,,Clear,0,2013-09-06 12:58:00
8:58 AM,74.7,65.1,72,30.13,10.0,NE,5.8,-,N/A,,Clear,40,2013-09-06 13:58:00
9:58 AM,78.3,65.1,64,30.15,10.0,ENE,4.6,-,N/A,,Clear,60,2013-09-06 14:58:00
10:58 AM,81.1,66.0,60,30.15,10.0,Variable,1.2,-,N/A,,Clear,0,2013-09-06 15:58:00
11:58 AM,86.0,66.2,51,30.14,10.0,NE,6.9,-,N/A,,Clear,50,2013-09-06 16:58:00
12:58 PM,88.9,65.7,46,30.11,10.0,East,6.9,-,N/A,,Clear,90,2013-09-06 17:58:00
1:58 PM,89.8,66.2,46,30.09,10.0,NNE,9.2,-,N/A,,Clear,30,2013-09-06 18:58:00
2:58 PM,90.3,66.7,46,30.07,10.0,Variable,6.9,-,N/A,,Clear,0,2013-09-06 19:58:00
3:58 PM,91.8,62.1,37,30.04,10.0,Variable,5.8,-,N/A,,Clear,0,2013-09-06 20:58:00
4:58 PM,90.0,63.9,42,30.04,10.0,East,5.8,-,N/A,,Clear,100,2013-09-06 21:58:00
5:58 PM,90.1,66.0,45,30.03,10.0,East,8.1,-,N/A,,Clear,80,2013-09-06 22:58:00
6:58 PM,86.9,69.3,56,30.02,10.0,ENE,5.8,-,N/A,,Clear,60,2013-09-06 23:58:00
7:58 PM,81.3,69.4,67,30.04,10.0,Calm,Calm,-,N/A,,Clear,0,2013-09-07 00:58:00
8:58 PM,76.8,69.1,77,30.03,10.0,Calm,Calm,-,N/A,,Clear,0,2013-09-07 01:58:00
9:58 PM,74.3,68.5,82,30.04,10.0,East,2.3,-,N/A,,Clear,80,2013-09-07 02:58:00
10:58 PM,73.8,68.2,83,30.04,10.0,NE,1.2,-,N/A,,Partly Cloudy,40,2013-09-07 03:58:00
11:58 PM,71.8,68.2,88,30.04,10.0,Calm,Calm,-,N/A,,Scattered Clouds,0,2013-09-07 04:58:00